Theta_e
290 284 279 280 282 287 285 283 281 282 285 283 286 288 289 290 289 289 289 289 289 290 293 294 295 296 296 297 298 300 300 301 303 305 307 329 328 330 331 332 332 333 332 331
286 280 285 285 282 283 285 280 277 281 283 282 284 286 287 288 287 288 287 288 288 289 290 291 293 294 294 294 295 298 300 300 301 304 306 308 327 330 331 331 331 332 332 331
280 280 285 282 279 279 281 276 276 277 282 284 285 284 285 287 287 287 287 288 288 288 288 289 290 291 292 292 293 295 298 299 299 300 304 309 314 318 322 327 328 329 331 329
283 283 281 280 278 279 277 280 279 280 277 271 283 273 283 284 283 284 284 284 286 287 288 289 289 290 291 292 293 294 295 298 300 300 299 301 306 309 317 325 325 326 325 326
279 279 277 277 277 281 278 280 280 280 277 276 278 273 278 282 279 280 281 283 284 286 286 287 288 290 290 292 292 292 293 295 298 299 298 298 299 304 309 320 319 319 316 318
279 283 280 278 281 282 282 280 282 283 279 270 274 272 272 276 277 279 281 282 283 284 286 286 287 288 288 289 290 291 291 293 295 298 298 297 297 299 303 311 317 315 315 314
278 276 280 280 277 281 279 276 266 264 265 266 275 270 273 278 279 280 280 280 282 283 284 285 285 286 286 287 287 289 290 290 293 294 297 297 297 298 300 304 313 315 311 309
271 270 275 279 276 274 276 274 265 256 263 266 274 266 273 280 281 282 282 281 281 282 283 284 285 285 286 286 287 287 288 289 291 292 294 296 297 297 299 301 304 314 311 310
268 271 277 278 278 278 274 269 276 264 263 262 270 274 279 281 281 280 279 279 280 280 282 283 284 285 285 286 286 287 287 288 289 291 293 294 295 296 296 298 302 308 309 308
273 266 275 276 278 279 276 276 267 266 255 255 267 268 268 276 274 277 277 278 280 281 282 282 283 284 284 286 286 286 287 287 288 290 292 292 294 295 295 296 298 301 307 306
275 269 272 276 272 270 272 271 271 267 266 258 259 265 274 274 275 274 276 278 279 280 281 281 282 283 283 285 285 285 286 286 287 289 290 291 292 294 294 294 295 297 299 303
276 268 264 270 274 275 274 271 271 260 261 266 266 265 278 276 277 277 277 279 280 281 281 281 282 282 283 283 284 284 285 285 287 288 289 290 291 292 293 292 293 294 296 298
274 267 259 265 270 273 271 273 273 269 265 261 256 263 279 278 277 278 278 279 280 280 280 281 282 282 282 283 283 284 285 285 286 287 287 288 289 290 291 292 292 292 293 295
278 269 265 261 266 270 268 271 271 265 261 265 266 268 273 275 276 277 279 279 280 279 280 281 281 281 282 283 283 284 284 285 286 286 286 287 287 288 289 291 291 291 291 292
273 263 268 269 272 271 270 270 271 268 269 265 268 268 272 275 276 277 279 278 279 279 280 281 281 281 282 282 283 284 284 285 285 285 285 285 286 286 287 289 290 290 289 290
276 262 265 262 269 270 269 271 271 271 271 270 270 269 276 277 278 277 277 277 277 278 280 281 281 281 281 282 283 284 284 284 285 284 284 285 285 285 285 287 288 289 287 287
269 266 263 258 266 261 257 266 269 270 271 270 267 272 276 275 275 275 275 277 277 278 279 279 280 281 282 282 284 283 283 284 283 283 284 284 284 283 284 285 287 287 286 286
269 267 266 261 259 251 269 274 272 272 273 273 273 274 275 276 277 277 277 277 278 275 279 280 280 281 281 282 282 283 282 282 282 281 282 283 282 281 282 283 284 286 286 285
275 271 266 258 255 264 269 271 269 268 269 273 273 274 275 276 276 273 278 279 279 275 278 280 281 281 280 280 282 281 280 280 279 278 280 280 280 280 281 281 283 285 286 285
270 270 269 257 256 252 267 272 274 272 264 273 273 273 273 274 269 271 278 279 279 279 277 279 280 281 280 278 278 279 279 278 277 278 277 278 279 279 279 280 282 284 285 285
258 258 264 264 262 263 273 274 274 261 266 274 274 275 274 273 274 277 280 280 280 276 277 279 277 278 277 275 278 277 276 275 275 275 276 278 277 276 278 280 282 284 285 285
263 261 259 259 260 259 275 273 269 273 276 276 275 276 275 276 278 278 279 279 278 276 274 277 275 276 274 277 278 275 274 273 274 274 276 274 274 276 278 279 282 283 284 284
263 269 266 267 266 274 276 275 276 277 276 276 277 278 278 277 277 278 278 278 279 278 279 276 273 272 273 273 275 274 272 272 273 272 270 271 273 275 277 279 280 281 283 284
272 275 271 272 274 276 277 279 279 280 278 278 279 279 278 277 278 278 278 279 279 279 279 276 276 272 270 271 272 268 270 271 270 267 268 271 273 274 275 276 278 280 281 283
274 274 272 272 275 276 277 278 279 280 280 280 279 278 278 278 278 278 278 278 279 278 278 276 274 274 272 272 269 267 269 269 267 267 268 270 272 272 273 274 277 279 281 283
277 275 272 272 277 277 277 280 280 279 279 279 278 278 279 278 277 276 276 276 276 274 273 272 272 270 268 267 266 266 265 266 264 265 267 268 269 270 271 274 275 279 281 283
Wind_Speed
17 15 14 14 14 5 7 8 7 6 12 10 6 12 11 14 16 16 16 16 16 17 16 16 18 18 20 20 21 21 21 21 16 12 11 6 7 8 8 8 12 14 8 11
9 17 10 9 15 10 7 9 8 8 13 7 7 12 13 13 15 15 15 15 16 16 18 19 19 19 20 20 20 21 20 20 16 12 13 8 10 7 9 9 11 13 12 11
14 12 11 12 15 14 12 10 10 6 12 3 7 8 11 15 16 13 14 14 14 16 18 19 19 19 18 20 21 20 20 19 17 19 13 12 11 4 3 7 8 12 14 11
10 11 13 10 11 13 4 14 13 8 5 2 5 1 6 8 13 14 13 13 14 16 16 16 17 19 18 17 17 20 20 19 16 18 15 17 11 12 6 9 8 8 8 9
5 10 13 10 8 9 5 20 13 9 2 3 3 3 6 7 9 11 12 13 11 11 14 16 16 16 16 16 16 16 19 20 20 18 17 12 14 11 13 7 7 8 6 6
8 6 6 7 13 10 16 14 2 4 3 1 3 4 1 3 4 8 10 12 13 13 12 13 13 14 14 16 17 17 19 19 21 20 18 16 16 17 14 15 7 7 7 7
4 7 4 11 6 8 17 11 5 6 5 4 8 4 3 6 5 6 8 10 12 13 13 13 14 14 14 16 17 17 19 20 20 21 20 19 18 16 15 15 13 9 6 6
6 4 8 9 5 5 7 4 4 2 4 5 12 5 4 7 4 3 6 10 8 9 9 10 12 12 13 15 16 17 18 19 19 19 21 18 18 12 11 13 13 10 6 8
5 1 2 6 5 6 8 6 3 1 2 2 5 3 5 5 5 8 11 9 9 10 9 9 8 10 12 12 14 15 17 18 18 19 17 19 17 17 16 17 14 12 4 3
3 5 3 4 3 3 4 3 2 3 4 6 5 5 2 3 7 8 8 10 10 9 9 10 8 7 8 10 11 12 13 15 17 18 15 15 18 17 16 15 16 14 14 5
4 3 4 4 4 4 3 2 3 2 2 3 6 6 7 7 3 4 6 7 7 7 8 8 7 6 7 9 8 10 12 13 15 16 16 16 17 17 15 14 15 15 13 11
3 1 4 3 6 3 2 2 2 5 5 3 5 8 12 5 3 5 7 7 7 8 9 7 8 6 8 9 10 11 11 11 11 13 15 15 15 17 15 15 15 15 15 11
3 1 4 3 2 1 2 3 2 4 2 9 2 9 5 5 6 10 11 9 7 7 9 7 9 7 9 13 9 10 12 11 11 12 13 15 15 16 18 15 15 14 15 13
3 3 6 6 5 4 4 8 9 7 5 11 13 29 19 21 18 16 15 10 7 6 8 11 8 7 12 14 11 10 12 12 12 12 12 13 14 16 17 17 14 13 12 14
2 4 5 6 13 12 13 17 19 16 17 15 26 25 24 23 19 21 17 6 6 7 10 10 7 8 12 13 12 11 10 12 12 13 12 13 12 14 15 16 16 13 11 11
5 4 3 4 15 12 15 20 20 19 20 23 27 29 21 21 17 9 8 5 6 8 13 6 6 9 12 14 14 14 12 12 12 13 14 13 12 14 15 16 15 14 11 9
3 2 2 5 2 2 8 11 12 7 9 10 17 19 15 12 10 7 3 6 8 11 7 7 7 8 10 11 13 14 13 11 12 12 14 13 13 15 16 16 15 15 12 7
4 3 3 5 5 2 7 8 8 13 14 17 18 19 17 16 13 6 3 6 9 4 5 7 7 8 8 8 10 12 11 11 10 12 14 12 13 15 14 15 15 14 11 6
8 4 4 3 5 10 9 8 1 2 15 12 18 19 18 14 9 4 4 4 9 7 8 7 7 7 7 8 9 10 11 9 8 11 11 14 14 15 15 15 15 13 12 8
3 1 5 0 4 8 4 5 7 3 9 10 2 6 7 5 5 5 5 7 9 9 8 8 8 7 6 7 6 10 11 10 10 8 14 15 14 15 15 15 16 13 12 10
3 1 13 13 9 10 9 5 5 4 11 3 4 8 7 6 8 9 12 14 10 7 9 8 6 7 8 4 5 9 10 9 7 11 14 15 14 14 14 14 14 13 12 10
10 8 6 4 6 12 12 5 9 10 6 5 7 9 9 10 15 15 16 11 8 8 6 7 6 7 4 3 5 8 9 7 11 12 13 15 13 12 11 14 14 14 11 10
4 10 7 12 10 9 8 11 10 7 7 10 11 13 12 11 12 14 11 9 9 8 9 6 5 4 3 3 2 8 8 10 12 11 12 14 14 12 11 13 13 12 12 8
9 10 11 18 15 22 23 20 16 18 15 9 12 13 10 12 12 12 11 11 10 8 8 3 2 3 4 1 2 3 7 10 11 11 12 12 13 13 10 9 8 9 10 9
9 8 16 24 20 23 22 21 23 23 19 16 9 8 10 11 11 8 10 9 9 8 5 5 5 6 4 5 4 3 7 9 10 11 11 12 10 12 12 10 9 10 10 11
12 20 14 17 23 18 17 14 12 7 9 11 8 9 7 4 5 5 6 6 8 7 8 8 6 5 6 5 6 5 5 6 9 12 9 9 10 10 9 11 12 15 19 22
Wind_Direction
49 63 34 36 4 30 9 27 24 334 26 341 343 97 71 57 47 38 34 27 21 19 11 14 14 10 5 8 5 0 357 356 352 345 342 260 221 216 207 205 208 214 218 205
57 41 17 21 17 346 71 30 14 321 341 322 313 111 87 67 60 48 36 29 22 14 13 14 15 11 10 5 4 0 356 354 351 347 330 311 278 217 214 206 209 214 211 205
66 18 354 32 26 9 75 33 350 314 317 239 31 132 122 86 63 49 42 33 24 17 13 10 9 9 8 6 2 358 355 352 353 349 338 332 335 307 207 215 210 214 220 200
53 24 10 45 37 360 320 357 320 312 10 317 346 126 97 67 56 43 36 29 21 12 11 8 5 4 6 5 359 354 356 354 353 350 348 340 324 326 266 215 215 211 215 226
57 16 15 24 354 338 316 313 289 273 255 62 353 76 102 82 33 31 28 22 22 18 9 4 4 2 0 359 358 355 353 355 352 352 352 345 335 323 328 238 218 207 208 219
89 82 37 336 319 54 324 322 255 118 123 78 200 76 87 33 26 17 13 12 10 6 9 3 1 0 0 358 357 354 355 353 354 350 348 349 340 333 330 326 217 211 213 201
354 44 88 9 341 357 358 351 1 9 15 206 25 354 133 125 67 32 8 3 1 358 358 357 357 357 356 359 356 352 351 350 350 352 346 345 343 337 330 321 307 209 202 202
359 343 21 358 24 325 325 7 93 235 332 296 307 251 176 135 105 312 10 4 0 347 350 349 352 352 352 353 353 352 349 344 346 348 347 340 338 336 332 332 321 292 252 221
6 39 77 50 346 1 319 43 342 317 237 18 244 76 142 175 227 16 9 4 356 347 339 342 343 351 347 349 350 348 346 343 341 342 343 343 336 336 334 329 320 316 246 216
56 297 50 318 267 99 54 4 58 349 358 305 286 289 229 200 29 357 1 3 357 340 341 339 338 345 351 339 342 343 343 341 338 337 337 339 336 332 331 329 330 330 315 244
33 107 297 302 53 11 330 64 27 118 173 216 304 261 177 124 106 349 354 341 340 334 335 325 327 338 340 332 335 335 339 339 338 337 334 335 340 332 329 329 329 328 322 309
87 27 284 287 45 320 37 58 72 110 300 283 270 269 277 176 139 53 351 332 332 331 309 319 323 337 341 326 331 332 332 336 334 332 330 329 332 338 328 326 326 328 320 312
3 236 317 2 68 81 230 183 227 104 53 216 195 258 68 187 313 5 337 317 302 304 321 316 321 323 338 328 321 325 326 329 329 332 329 328 329 334 335 323 320 323 321 306
115 267 192 207 235 337 279 293 272 166 204 269 240 276 278 283 294 320 310 293 285 340 336 320 309 329 331 323 323 323 319 326 325 330 329 328 329 330 327 327 315 315 318 311
153 244 236 261 280 290 287 280 268 257 257 254 275 267 280 282 288 288 285 324 1 329 323 312 328 324 317 315 317 318 318 320 324 324 324 323 323 324 322 325 324 312 311 308
164 275 88 257 262 267 273 265 263 264 266 267 269 277 275 283 279 279 314 6 321 310 300 298 299 307 312 314 317 318 317 314 322 316 318 318 322 325 319 325 327 314 308 306
171 214 1 265 158 288 297 254 241 236 242 252 274 287 299 287 291 292 272 318 306 289 284 298 292 302 306 307 310 310 314 317 314 314 314 315 324 322 321 321 322 323 307 300
170 145 206 268 13 272 253 287 251 256 262 264 280 285 277 285 292 266 354 311 312 287 265 273 281 291 291 292 301 302 312 309 305 310 310 315 321 317 317 315 319 319 307 293
233 197 266 229 210 271 291 277 195 254 285 282 282 285 279 286 284 274 301 339 321 288 259 249 257 261 283 290 293 304 305 304 303 304 309 321 318 314 314 312 314 314 309 289
30 35 212 226 241 243 250 353 41 70 280 257 294 307 312 358 309 273 331 306 287 268 263 266 258 257 259 274 289 301 303 311 312 323 319 312 316 312 311 308 312 311 302 293
139 204 219 235 252 268 247 240 131 117 249 273 245 272 276 263 245 285 307 308 280 240 261 270 262 251 256 265 288 296 307 311 321 319 312 315 313 307 304 304 310 310 306 300
171 171 200 186 224 276 230 113 182 224 251 281 280 275 269 269 281 292 298 292 281 278 281 272 261 262 266 276 302 299 305 319 320 309 320 311 307 307 307 309 314 314 305 297
237 194 197 189 206 235 228 214 222 239 238 270 273 276 272 278 282 284 284 293 292 284 284 257 223 255 261 278 324 310 314 321 315 329 314 309 308 306 307 313 314 310 312 302
226 232 242 263 241 252 260 264 268 274 269 272 275 278 279 278 283 285 288 295 293 287 283 253 222 281 301 344 348 298 316 321 326 317 313 309 311 315 318 310 303 306 307 305
212 180 226 254 267 266 265 265 265 267 271 265 258 256 263 268 275 279 299 303 312 319 351 8 348 325 326 343 333 324 334 328 321 317 312 312 314 315 314 311 305 309 301 302
220 237 231 246 256 250 261 264 264 266 275 280 271 283 276 291 317 335 310 326 335 351 349 332 328 333 323 330 314 326 327 326 322 317 316 316 310 314 308 317 314 307 306 309